Reno, NV

6:16 AM PDT on October 17, 2019 (GMT -0700)
Reno-Tahoe International

Weather History for KRNO - August, 2019

Change the Weather History Date:

Sunday, August 11, 2019

  Actual Average Record
Temperature  
Mean Temperature 68 °F 74 °F  
Max Temperature 84 °F 92 °F 105 °F (1940)
Min Temperature 52 °F 57 °F 35 °F (1962)
Degree Days  
Heating Degree Days 0 0  
Month to date heating degree days 0 0  
Since 1 June heating degree days 15 61  
Since 1 July heating degree days 0 5  
Cooling Degree Days 3 9  
Month to date cooling degree days 123 112  
Year to date cooling degree days 714 599  
Since 1 June cooling degree days 700 562  
Growing Degree Days 18 (Base 50)    
Moisture  
Dew Point 38 °F    
Average Humidity 37    
Maximum Humidity 64    
Minimum Humidity 16    
Precipitation  
Precipitation 0.00 in 0.00 in 0.15 in (1925)
Month to date precipitation T 0.10  
Year to date precipitation 8.76 4.56  
Snow  
Snow 0.00 in 0.00 in 0.00 in ()
Month to date snowfall 0.0 0.0  
Since 1 June snowfall 0.0 T  
Since 1 July snowfall 0.0 0.0  
Snow Depth 0.00 in    
Sea Level Pressure  
Sea Level Pressure 30.00 in    
Wind  
Wind Speed 5 mph ()    
Max Wind Speed 16 mph    
Max Gust Speed 18 mph    
Visibility 10.0 miles    
Events      
T = Trace of Precipitation, MM = Missing Value Source: Averaged Metar Reports

Daily Weather History Graph

Daily Weather History Graph

Search for Another Location

Airport or City:

Astronomy

Aug. 11, 2019 Rise Set
Actual Time 6:07 AM PDT 8:00 PM PDT
Civil Twilight 5:38 AM PDT 8:29 PM PDT
Nautical Twilight 5:03 AM PDT 9:04 PM PDT
Astronomical Twilight 4:25 AM PDT 9:42 PM PDT
Moon 5:43 PM PDT (8/11) 2:32 AM PDT (8/11)
Length of Visible Light 14h 50m
Length of Day
13h 52m
Waxing Gibbous, 87% of the Moon is Illuminated
Aug 11
Waxing Gibbous
Aug 15
Full
Aug 23
Last Quarter
Aug 30
New
Sep 5
First Quarter

Hourly Weather History & Observations

Time (PDT) Temp. Dew Point Humidity Pressure Visibility Wind Dir Wind Speed Gust Speed Precip Events Conditions
12:55 AM 60.1 °F 42.1 °F 51% 29.97 in 10.0 mi North 8.1 mph - N/A   Clear
1:55 AM 57.9 °F 42.1 °F 56% 29.97 in 10.0 mi NE 3.5 mph - N/A   Clear
2:55 AM 57.0 °F 41.0 °F 55% 29.98 in 10.0 mi North 4.6 mph - N/A   Clear
3:55 AM 53.1 °F 39.9 °F 61% 30.00 in 10.0 mi South 5.8 mph - N/A   Clear
4:55 AM 54.0 °F 41.0 °F 62% 30.02 in 10.0 mi West 5.8 mph - N/A   Clear
5:55 AM 52.0 °F 39.0 °F 61% 30.05 in 10.0 mi West 5.8 mph - N/A   Clear
6:55 AM 53.1 °F 39.0 °F 59% 30.06 in 10.0 mi West 3.5 mph - N/A   Clear
7:55 AM 57.0 °F 39.9 °F 53% 30.07 in 10.0 mi WNW 3.5 mph - N/A   Clear
8:55 AM 61.0 °F 39.9 °F 46% 30.06 in 10.0 mi Calm Calm - N/A   Clear
9:55 AM 64.0 °F 42.1 °F 45% 30.06 in 10.0 mi Calm Calm - N/A   Partly Cloudy
10:55 AM 68.0 °F 42.1 °F 39% 30.05 in 10.0 mi Variable 4.6 mph - N/A   Partly Cloudy
11:55 AM 73.0 °F 39.0 °F 29% 30.02 in 10.0 mi Variable 5.8 mph - N/A   Partly Cloudy
12:55 PM 77.0 °F 33.1 °F 20% 30.00 in 10.0 mi Calm Calm - N/A   Partly Cloudy
1:55 PM 79.0 °F 33.1 °F 19% 29.98 in 10.0 mi Variable 3.5 mph - N/A   Partly Cloudy
2:55 PM 80.1 °F 35.1 °F 20% 29.96 in 10.0 mi East 6.9 mph - N/A   Partly Cloudy
3:55 PM 81.0 °F 36.0 °F 20% 29.96 in 10.0 mi SE 5.8 mph - N/A   Partly Cloudy
4:55 PM 82.9 °F 32.0 °F 16% 29.94 in 10.0 mi Variable 4.6 mph - N/A   Partly Cloudy
5:55 PM 82.0 °F 33.1 °F 17% 29.95 in 10.0 mi Variable 6.9 mph - N/A   Partly Cloudy
6:55 PM 81.0 °F 32.0 °F 17% 29.96 in 10.0 mi NNE 8.1 mph - N/A   Clear
7:55 PM 77.0 °F 36.0 °F 23% 29.97 in 10.0 mi North 12.7 mph - N/A   Clear
8:55 PM 73.9 °F 36.0 °F 25% 30.00 in 10.0 mi NE 5.8 mph - N/A   Clear
9:55 PM 73.0 °F 37.0 °F 27% 30.01 in 10.0 mi NW 4.6 mph - N/A   Clear
10:55 PM 69.1 °F 37.9 °F 32% 30.01 in 10.0 mi WNW 3.5 mph - N/A   Clear
11:55 PM 66.9 °F 37.9 °F 34% 30.01 in 10.0 mi West 8.1 mph - N/A   Clear